This is the latest recevied weather packets stored in our database for station/object OE9XVI-6. If no packets are shown the sender has not sent any weather packets the latest 10 day(s).
| Time | Temp. | Humidity | Pressure | Rain* | Wind** | Luminosity | Snow |
|---|---|---|---|---|---|---|---|
| 1778183807 | 9.44° C | 60% | 1016.2 hPa | 0 mm | - | - | - |
| 1778183207 | 10° C | 60% | 1016.1 hPa | 0 mm | - | - | - |
| 1778182607 | 10° C | 59% | 1016.1 hPa | 0 mm | - | - | - |
| 1778182007 | 10° C | 69% | 1016.1 hPa | 0 mm | - | - | - |
| 1778181407 | 10.56° C | 68% | 1016 hPa | 0 mm | - | - | - |
| 1778180807 | 11.67° C | 64% | 1016 hPa | 0 mm | - | - | - |
| 1778180207 | 12.22° C | 61% | 1015.8 hPa | 0 mm | - | - | - |
| 1778179607 | 12.78° C | 60% | 1015.7 hPa | 0 mm | - | - | - |
| 1778179007 | 13.33° C | 58% | 1015.6 hPa | 0 mm | - | - | - |
| 1778178407 | 14.44° C | 54% | 1015.6 hPa | 0 mm | - | - | - |
| 1778177807 | 15° C | 54% | 1015.6 hPa | 0 mm | - | - | - |
| 1778177208 | 16.11° C | 49% | 1015.5 hPa | 0 mm | - | - | - |
| 1778176607 | 20° C | 44% | 1015.4 hPa | 0 mm | - | - | - |
| 1778176007 | 25.56° C | 29% | 1015.4 hPa | 0 mm | - | - | - |
| 1778175407 | 27.78° C | 31% | 1015.4 hPa | 0 mm | - | - | - |
| 1778174808 | 22.78° C | 44% | 1015.3 hPa | 0 mm | - | - | - |
| 1778174208 | 21.11° C | 34% | 1015.3 hPa | 0 mm | - | - | - |
| 1778173608 | 23.89° C | 40% | 1015.3 hPa | 0 mm | - | - | - |
| 1778173008 | 23.89° C | 37% | 1015.3 hPa | 0 mm | - | - | - |
| 1778172408 | 26.11° C | 34% | 1015.4 hPa | 0 mm | - | - | - |
| 1778171808 | 26.67° C | 34% | 1015.3 hPa | 0 mm | - | - | - |
| 1778171208 | 26.67° C | 62% | 1015.4 hPa | 0 mm | - | - | - |
| 1778170608 | 20.56° C | 62% | 1015.3 hPa | 0 mm | - | - | - |
| 1778170008 | 13.89° C | 69% | 1015.3 hPa | 0 mm | - | - | - |
| 1778169408 | 12.78° C | 71% | 1015.4 hPa | 0 mm | - | - | - |
* Rain latest hour (hover to see other rain measurements)
** Current wind speed in m/s (hover to see current wind gust speed)